Flag for U.S.A. Weather past 2 weeks in Ocala, Florida, U.S.A.

Now
88 °F

Scattered clouds.


Feels Like: 94 °F
Forecast: 73 / 89 °F
Wind: 8 mph from Northwest

Location: Ocala Municipal

Current Time: Sep 3, 2015 at 11:32:39 AM

Latest Report: Sep 3, 2015 at 10:50 AM


Visibility: 10 mi

Pressure: 30.01 "Hg

Humidity: 59%

Dew point: 72 °F

Location of OcalaLocation

Historic Weather in Ocala — Graph

°F

Ocala temperature yesterday

Maximum temperature yesterday: 91 °F (at 2:50 PM)
Minimum temperature yesterday: 75 °F (at 12:15 AM)
Average temperature yesterday: 79 °F

Past Weeks' High & Low Weather Summary

 TemperatureHumidityPressure
High93 °F (Aug 19, 3:50 PM)100% (Aug 21, 1:55 AM)30.11 "Hg (Aug 21, 1:55 AM)
Low70 °F (Aug 28, 6:50 AM)47% (Aug 25, 4:50 PM)29.87 "Hg (Aug 25, 6:50 PM)
Average78 °F85%30.00 "Hg
* Reported Aug 19 9:50 AM — Sep 3 9:50 AM, Ocala, Weather by CustomWeather, © 2015

Note: Actual official high and low records may vary slightly from our data, if they occured in-between our weather recording intervals... More about our weather records

Advertising

Ocala weather history for previous 24 hours

 ConditionsComfort  
Time TempWeatherWind HumidityBarometerVisibility
9:50 AM
Thu, Sep 3
82 °FPassing clouds.6 mph79%30.01 "Hg10 mi
8:50 AM79 °FPassing clouds.No wind89%30.01 "Hg10 mi
7:50 AM73 °FPassing clouds.3 mph94%29.99 "Hg10 mi
6:50 AM73 °FPassing clouds.3 mph94%29.98 "Hg10 mi
6:35 AM73 °FClear.No wind94%29.98 "Hg10 mi
6:15 AM73 °FClear.No wind94%29.97 "Hg10 mi
5:55 AM73 °FPassing clouds.3 mph94%29.97 "Hg10 mi
5:35 AM73 °FPassing clouds.No wind94%29.97 "Hg8 mi
5:15 AM73 °FPassing clouds.No wind94%29.97 "Hg10 mi
4:55 AM73 °FPassing clouds.No wind94%29.97 "Hg10 mi
4:35 AM73 °FPassing clouds.No wind94%29.97 "Hg10 mi
4:15 AM73 °FClear.No wind94%29.96 "Hg10 mi
3:55 AM73 °FClear.No wind94%29.97 "Hg10 mi
3:35 AM73 °FClear.No wind94%29.97 "Hg10 mi
3:15 AM73 °FClear.3 mph94%29.97 "Hg10 mi
2:55 AM73 °FClear.No wind94%29.97 "Hg9 mi
2:35 AM73 °FClear.No wind94%29.98 "Hg9 mi
2:15 AM75 °FClear.No wind89%29.98 "Hg10 mi
1:55 AM75 °FClear.No wind94%29.98 "Hg10 mi
1:35 AM75 °FClear.No wind94%29.99 "Hg10 mi
1:15 AM75 °FClear.No wind89%29.99 "Hg10 mi
12:55 AM75 °FClear.3 mph89%30.00 "Hg10 mi
12:35 AM75 °FClear.No wind89%30.01 "Hg10 mi
11:55 PM
Wed, Sep 2
75 °FClear.No wind94%30.01 "Hg10 mi
11:35 PM75 °FClear.3 mph94%30.02 "Hg10 mi
11:15 PM75 °FClear.No wind94%30.02 "Hg10 mi
10:55 PM77 °FClear.3 mph89%30.01 "Hg10 mi
10:35 PM79 °FClear.3 mph84%30.02 "Hg10 mi
10:15 PM79 °FClear.No wind84%30.02 "Hg10 mi
9:55 PM79 °FClear.3 mph84%30.02 "Hg10 mi
9:35 PM79 °FClear.No wind84%30.02 "Hg10 mi
9:15 PM79 °FClear.No wind84%30.02 "Hg10 mi
8:55 PM79 °FClear.No wind84%30.01 "Hg10 mi
8:35 PM81 °FSunny.No wind74%30.00 "Hg10 mi
8:15 PM82 °FSunny.3 mph70%29.99 "Hg10 mi
7:55 PM82 °FSunny.3 mph70%29.99 "Hg10 mi
6:50 PM88 °FPassing clouds.8 mph59%30.00 "Hg10 mi
5:50 PM90 °FPassing clouds.10 mph55%29.99 "Hg10 mi
4:50 PM91 °FPassing clouds.12 mph52%30.00 "Hg10 mi
3:50 PM91 °FScattered clouds.12 mph52%30.01 "Hg10 mi
2:50 PM91 °FScattered clouds.10 mph56%30.02 "Hg10 mi
1:50 PM90 °FScattered clouds.9 mph59%30.05 "Hg10 mi
12:50 PM88 °FScattered clouds.9 mph62%30.07 "Hg10 mi
11:50 AM88 °FScattered clouds.9 mph66%30.09 "Hg10 mi
Weather by CustomWeather, © 2015

See weather overviewHow to use our weather pages